Regional Weather Roundup
Issued by NWS Little Rock, AR

Home | Current Version | Previous Version | Text Only | Print | Product List | Glossary On
Versions: 1 2 3 4 5 6 7 8 9 10 11 12 13 14 15 16 17 18 19 20 21 22 23 24 25 26 27 28 29 30 31 32 33 34 35 36 37 38 39 40 41 42 43 44 45 46 47 48 49 50
000
ASUS44 KLZK 142005
RWRLZK

WEATHER ROUNDUP FOR ARKANSAS
NATIONAL WEATHER SERVICE LITTLE ROCK AR
200 PM CST THU DEC 14 2017

NOTE: "FAIR" INDICATES FEW OR NO CLOUDS BELOW 12,000 FEET WITH NO
SIGNIFICANT WEATHER AND/OR OBSTRUCTIONS TO VISIBILITY.

ARZ001-003-010-029-142100-
NORTHWEST ARKANSAS

CITY           SKY/WX    TMP DP  RH WIND       PRES   REMARKS
FAYETTEVILLE   PTSUNNY   46  26  45 NW15      30.07F
FORT SMITH     SUNNY     52  28  39 N12       30.06F
HARRISON       CLOUDY    41  23  48 NW9G18    30.06S
BENTONVILLE    CLOUDY    41  25  53 N9        30.10S
ROGERS         CLOUDY    40  24  53 NW12      30.09S
SILOAM SPGS    CLOUDY    42  26  53 N10       30.10S
HIGHFILL       CLOUDY    42  25  50 N10       30.08
SPRINGDALE     CLOUDY    41  25  52 N12       30.09S
$$

ARZ004-005-016-142100-
NORTH CENTRAL ARKANSAS

CITY           SKY/WX    TMP DP  RH WIND       PRES   REMARKS
BATESVILLE     PTSUNNY   45  24  43 NW7       30.05F
FLIPPIN        PTSUNNY   42  23  46 NW8       30.08S
MTN HOME       CLOUDY    41  23  48 VRB7      30.06S
$$

ARZ040-041-142100-
WEST CENTRAL ARKANSAS

CITY           SKY/WX    TMP DP  RH WIND       PRES   REMARKS
MENA           SUNNY     57  28  33 NW8       30.01F
MOUNT IDA      SUNNY     58  27  30 NW9       29.97F
$$

ARZ009-017-025-026-028-142100-
NORTHEAST ARKANSAS

CITY           SKY/WX    TMP DP  RH WIND       PRES   REMARKS
JONESBORO      CLOUDY    43  28  55 CALM      30.05S
NEWPORT        CLOUDY    46  25  43 NW8       30.05F
WALNUT RIDGE   MOSUNNY   45  25  45 E6        30.05S
BLYTHEVILLE    CLOUDY    45  28  51 NW7       30.06S
$$

ARZ022-023-033-042-044-142100-
CENTRAL ARKANSAS

CITY           SKY/WX    TMP DP  RH WIND       PRES   REMARKS
LITTLE ROCK    MOSUNNY   55  30  38 NW5       30.02F
N LITTLE ROCK    N/A     51  31  46 N6        30.04F
JACKSONVILLE   SUNNY     53  29  40 CALM      30.01F
SEARCY         MOSUNNY   52  30  43 N5        30.04F
HOT SPRINGS    SUNNY     57  30  35 W6        30.00F
RUSSELLVILLE   SUNNY     52  27  38 NW10      30.03F
CLINTON        FAIR      48  27  43 NW9G15    30.05F
$$

ARZ036-142100-
EAST ARKANSAS

CITY           SKY/WX    TMP DP  RH WIND       PRES   REMARKS
WEST MEMPHIS   SUNNY     48  30  49 NE13G22   30.03R
$$

ARZ050-053-066-070-073-142100-
SOUTHWEST ARKANSAS

CITY           SKY/WX    TMP DP  RH WIND       PRES   REMARKS
ARKADELPHIA    FAIR      59  31  34 NW7       30.00F
CAMDEN         SUNNY     61  28  29 VRB5      29.99F
TEXARKANA      SUNNY     60  29  30 NW7       29.99F
EL DORADO      MOSUNNY   57  33  40 NE5       29.99F
DE QUEEN       SUNNY     61  29  29 NW9       29.98F
$$

ARZ056-057-069-142100-
SOUTHEAST ARKANSAS

CITY           SKY/WX    TMP DP  RH WIND       PRES   REMARKS
PINE BLUFF     SUNNY     53  31  42 N9        30.02F
STUTTGART      SUNNY     51  31  46 N8        30.02F
MONTICELLO     SUNNY     56  31  38 VRB7      29.99F

$$





USA.gov is the U.S. government's official web portal to all federal, state and local government web resources and services.